www.pogodaiklimat.ru

Погода и климат >> Архив погоды >> Казахстан >> Тайпак


ПОГОДА в Тайпаке

АРХИВ ПОГОДЫ в Тайпаке

Время (UTC), дата Ветер
(напр.,м/с)
 
Видим.   Явления Облачность Т
(С)
Тd
(С)
f
(%)
Тe
(С)
Тes
(С)
Комфортность P
(гПа)
Po
(гПа)
Тmin
(С)
Tmax
(С)
R
(мм)
R24
(мм)
S
(см)
03 13.11 штиль 0 н/о 10/10 600 м
[Sc]
+4.1 +2.1 87 +3 +3 1022.2 1022.0
06 13.11 Ю 2 10 км {морось} 10/10 600 м
[St]
+6.3 +4.0 85 +4 +4 1023.4 1023.2 +3.9
09 13.11 Ю 2 10 км 10/10 600 м
[Sc]
+8.5 +5.0 79 +7 +7 1023.0 1022.8
12 13.11 ЮЗ 2 10 км 10/10 600 м
[Sc]
+9.1 +6.1 81 +7 +7 1022.5 1022.3
15 13.11 ЮЗ 4 н/о слабая морось 10/10 600 м
[St]
+6.1 +4.2 88 +2 +2 1023.5 1023.3 +10.0
18 13.11 Ю 4 н/о {морось} 10/10 600 м
[Sc]
+6.4 +5.3 93 +3 +3 1023.7 1023.5 +10.0 0.0
21 13.11 Ю 2 н/о 10/10 600 м
[Sc]
+6.6 +5.5 93 +4 +4 1023.5 1023.3
00 14.11 ЮЗ 2 н/о {дождь} 10/10 600 м
[Sc]
+6.5 +5.8 95 +4 +4 1023.5 1023.3
03 14.11 штиль 0 н/о туман {дождь} ?/? +6.8 +6.6 99 +6 +6 1024.4 1024.2
06 14.11 штиль 0 200 м туман {дождь} ?/? +7.8 +7.1 95 +7 +7 1025.5 1025.3 +5.9 0.0
09 14.11 штиль 0 10 км {туман} 10/10 600 м
[Sc]
+8.8 +7.1 89 +8 +8 1025.3 1025.1
12 14.11 штиль 0 10 км {туман} 10/10 600 м
[Sc]
+8.9 +7.4 90 +8 +8 1025.3 1025.1
15 14.11 ЮЗ 2 н/о 10/10 600 м
[Sc]
+8.2 +7.1 93 +6 +6 1025.5 1025.3 +9.6
18 14.11 ЮЗ 2 н/о 10/10 600 м
[St]
+6.7 +5.8 94 +4 +4 1025.4 1025.2 +9.6
21 14.11 ЮЗ 2 н/о слабая морось 10/10 600 м
[St]
+5.3 +4.6 95 +3 +3 1025.2 1025.0
00 15.11 ЮЗ 2 н/о слабый дождь {морось} 10/0 600 м
[As op]
+3.9 +3.2 95 +1 +1 1024.9 1024.7
03 15.11 Ю 2 н/о {дождь} 10/0 600 м
[As op]
+4.9 +3.7 92 +2 +2 1024.8 1024.6
06 15.11 Ю 2 10 км {дождь} 10/10 600 м
[Sc]
+5.0 +3.8 92 +2 +2 1025.6 1025.4 +3.7 0.4
09 15.11 Ю 2 10 км 8/8 600 м
[Sc]
+6.2 +3.0 80 +4 +5 1025.1 1024.8
12 15.11 штиль 0 10 км 8/0
[Ci fib]
+10.0 +4.5 69 +10 +10 1023.6 1023.4
15 15.11 Ю 2 н/о ясно +7.0 +3.8 80 +5 +5 1023.1 1022.9 +11.0
18 15.11 Ю 4 н/о ясно +6.1 +3.7 85 +2 +2 1022.7 1022.5 +11.0
21 15.11 Ю 4 н/о 10/10 600 м
[Sc]
+5.7 +4.1 89 +2 +2 1021.4 1021.2
00 16.11 Ю 2 н/о {дождь} 10/10 600 м
[Sc]
+5.6 +4.7 94 +3 +3 1020.1 1019.9
03 16.11 Ю 2 н/о слабый дождь 10/0 600 м
[As op]
+6.4 +5.7 95 +4 +4 1019.5 1019.3
06 16.11 З 2 10 км слабый дождь 10/0 600 м
[As op]
+5.0 +4.5 97 +2 +2 1021.3 1021.1 +5.3 3
09 16.11 СЗ 4 10 км {дождь} 9/9 600 м
[Sc]
+4.8 +2.6 86 +1 +1 1023.0 1022.8
12 16.11 З 4 10 км {дождь} 6/6 600 м
[Sc]
+4.2 +0.3 76 0 0 1024.8 1024.6
15 16.11 С 2 н/о ясно +0.3 -3.0 78 -3 -3 1025.7 1025.5 +6.7
18 16.11 СЗ 2 н/о ясно -1.3 -2.2 94 -5 -5 1025.5 1025.3 +6.7 2
21 16.11 З 2 н/о ясно -2.3 -3.8 89 -6 -6 1025.5 1025.3
00 17.11 З 2 н/о ясно -3.2 -4.2 93 -7 -7 1024.6 1024.4
03 17.11 З 2 н/о 6/0
[Ac trans]
-2.6 -3.2 96 -7 -7 1024.0 1023.8
06 17.11 ЮЗ 2 10 км 9/0
[Ac trans]
-0.3 -1.8 90 -4 -4 1024.0 1023.8 -3.4
09 17.11 З 2 10 км 8/0
[Ac trans]
+2.9 -0.1 81 -0 +1 1023.5 1023.3
12 17.11 З 4 10 км 8/0
[Ac trans]
+4.2 +1.4 82 -0 0 1024.0 1023.8
15 17.11 З 2 н/о 10/0
[Ac As]
+3.0 +1.2 88 -0 -0 1026.0 1025.8 +5.3
18 17.11 З 2 н/о ясно +0.2 -0.9 92 -4 -4 1027.5 1027.3 +5.3
21 17.11 З 2 н/о ясно -1.2 -2.1 94 -5 -5 1028.4 1028.2
00 18.11 штиль 0 н/о ясно -3.8 -4.0 99 -5 -5 1029.8 1029.6
03 18.11 штиль 0 н/о ясно -4.0 -4.5 96 -5 -5 1030.2 1030.0
06 18.11 штиль 0 10 км ясно -1.4 -2.2 94 -3 -1 1031.4 1031.2 -4.2
09 18.11 З 2 10 км 4/0
[Ac trans]
+4.8 +1.5 79 +2 +4 1031.7 1031.5
12 18.11 З 2 10 км 8/0
[Ac trans]
+4.4 +0.5 76 +2 +2 1031.2 1031.0
15 18.11 штиль 0 н/о ясно +1.3 -1.9 79 0 0 1030.9 1030.7 +5.3
18 18.11 ЮЗ 2 н/о ясно -0.9 -3.0 86 -5 -5 1031.2 1031.0 +5.3
21 18.11 ЮВ 2 н/о дымка 10/10 600 м
[St]
-1.9 -2.1 99 -6 -6 1031.0 1030.8
00 19.11 Ю 2 н/о туман ?/? -2.0 -2.0 100 -6 -6 1029.9 1029.7
03 19.11 ЮВ 2 н/о {туман} ясно -2.3 -3.5 91 -6 -6 1028.7 1028.5
06 19.11 ЮВ 2 10 км {туман} 8/0
[Ac trans]
-0.3 -3.3 80 -4 -3 1027.6 1027.4 -2.5
09 19.11 Ю 2 10 км {дождь} 9/9 600 м
[Sc]
+1.2 -2.7 75 -2 -2 1026.4 1026.1
12 19.11 Ю 4 10 км {дождь} 9/9 600 м
[Sc]
+2.6 -2.0 72 -2 -2 1025.5 1025.3
15 19.11 ЮВ 2 н/о 8/8 600 м
[Sc]
+2.5 -1.1 77 -1 -1 1024.8 1024.6 +3.6
18 19.11 ЮВ 2 н/о 10/10 600 м
[Sc]
+3.0 +0.1 81 0 0 1023.9 1023.7 +3.6 0.0
21 19.11 ЮВ 2 н/о ясно +1.7 -0.8 83 -2 -2 1023.7 1023.5
00 20.11 Ю 2 н/о ясно +1.2 -1.1 85 -2 -2 1022.8 1022.6

 

Местоположение метеостанции Тайпак (Западно-Казахстанская область, Казахстан): широта 49.05 долгота 51.87 высота над уровнем моря 2 м.

В архиве по умолчанию представлена погода в Тайпаке за последнюю неделю. Архивные данные за месяц целиком и за предыдущие месяцы, начиная с января 2011 года, Вы можете получить, выбрав интересующий диапазон дат из раскрывающегося списка и нажав кнопку "Ввод!".

Внимание! Время в таблицах - всемирное. Для получения местного времени необходимо прибавить поправку, которая в Тайпаке равна 5 ч.

Смотрите также архив погоды в соседних городах и на ближайших метеорологических станциях:

Погода в Индерборском (Атырауская область, Казахстан) (62 км)
Погода в Карабау (Атырауская область, Казахстан) (102 км)
Погода в Жангала (Западно-Казахстанская область, Казахстан) (116 км)
Погода в Каратобе (Западно-Казахстанская область, Казахстан) (131 км)
Погода в Чапаево (Западно-Казахстанская область, Казахстан) (137 км)
Погода в Джамбейты (Западно-Казахстанская область, Казахстан) (143 км)
Погода в Махамбете (Атырауская область, Казахстан) (155 км)
Погода в Жалпактале (Западно-Казахстанская область, Казахстан) (186 км)
Погода в Макате (Атырауская область, Казахстан) (189 км)
Погода в Анкаты (Западно-Казахстанская область, Казахстан) (198 км)

Пояснения к столбцам:

Ветер - указаны скорость ветра в м/с - средняя за 10 мин, порывы в срок и между сроками (в фигурных скобках) и направление, откуда дует ветер: С - северный, СВ - северо-восточный, В - восточный, ЮВ - юго-восточный, Ю - южный, ЮЗ - юго-западный, З - западный, СЗ - северо-западный.
Видимость - горизонтальная дальность видимости в метрах или километрах. При видимости от 1 до 10 км при отсутствии осадков обычно наблюдается дымка, при ухудшении видимости до 1 км и менее - туман. В сухую погоду видимость может ухудшаться дымом, пылью или мглою.
Явления - указаны атмосферные явления, наблюдавшиеся в срок или в последний час перед сроком; фигурными скобками обозначены явления, наблюдавшиеся между сроками (за 1-3 часа до срока); квадратными скобками обозначены град или гололедные отложения с указанием их диаметра в мм.
Облачность - указаны через наклонную черту общая и нижняя облачность в баллах и высота нижней границы облаков в метрах; квадратными скобками обозначены формы облаков: Ci - перистые, Cs - перисто-слоистые, Cc - перисто-кучевые, Ac - высококучевые, As - высокослоистые, Sc - слоисто-кучевые, Ns - слоисто-дождевые, Cu - кучевые, Cb - кучево-дождевые. Подробнее классификацию облаков см. в Атласе облаков (PDF).
T - Температура воздуха - температура, измеренная на высоте 2 м над землей.
Td - Температура точки росы - температура, при понижении до которой содержащийся в воздухе водяной пар достигнет насыщения.
f - Относительная влажность воздуха - влажноcть воздуха, измеренная на высоте 2 м над землей.
Te - Эффективная температура - температура, которую ощущает одетый по сезону человек в тени. Характеристика душности погоды. При расчете учитывается влияние влажности воздуха и скорости ветра на теплоощущения человека.
Tes - Эффективная температура на солнце - температура, которую ощущает человек, с поправкой на солнечный нагрев. Характеристика знойности погоды. Зависит от высоты солнца над горизонтом, облачности и скорости ветра. Ночью, в пасмурную погоду, а также при ветре 12 м/с и более поправка равна нулю.
P - Атмосферное давление - приведенное к уровню моря атмосферное давление.
Po - Атмосферное давление - измеренное на уровне метеостанции атмосферное давление.
Tmin - Минимальная температура - минимум температуры воздуха на высоте 2 м над землей.
Tmax - Максимальная температура - максимум температуры воздуха на высоте 2 м над землей.
R - Количество осадков - Количество выпавших осадков за период времени, мм. При наведении курсора мыши на число - период времени, за который выпало указанное количество осадков.
R24 - Количество осадков - Количество выпавших осадков за 24 часа, мм.
S - Снежный покров - Высота снежного покрова, см. При наведении курсора мыши на число - состояние снежного покрова и степень покрытия местности в баллах.